CW4610 Weather Reports


Display with metric or nautical units.
time (UTC)temp
F
wind
direction
speed
MPH
gust
MPH
rain 1hr
in
rain 24hr
in
rain mn
in
humidity
%
barometer
mb
20260507081518 55 45 2.0 4.0 0.00 0.00 0.00 83 1019.4
20260507080518 55 23 3.0 5.0 0.00 0.00 0.00 82 1019.4
20260507075518 55 23 1.0 3.0 0.00 0.00 0.00 82 1019.2
20260507074519 55 45 1.0 3.0 0.00 0.00 0.00 82 1019.2
20260507073537 55 315 3.0 4.0 0.00 0.00 0.00 83 1019.2
20260507072518 55 293 0.0 3.0 0.00 0.00 0.00 83 1019.2
20260507071520 55 338 0.0 2.0 0.00 0.00 0.00 82 1019.2
20260507070519 55 68 3.0 3.0 0.00 0.00 0.00 82 1019.2
20260507065519 55 23 4.0 5.0 0.00 0.00 0.00 82 1019.1
20260507064519 56 0 4.0 5.0 0.00 0.00 0.00 82 1019.2
20260507063520 56 338 1.0 3.0 0.00 0.00 0.00 81 1019.2
20260507062521 56 45 1.0 3.0 0.00 0.00 0.00 80 1019.1
20260507061519 56 23 1.0 3.0 0.00 0.00 0.00 81 1019.2
20260507060700 56 45 2.0 5.0 0.00 0.00 0.00 82 1019.2
20260507055520 56 180 1.0 3.0 0.00 0.00 0.00 82 1019.1
20260507054518 56 180 5.0 8.0 0.00 0.00 0.00 82 1019.0
20260507053519 56 180 4.0 11.0 0.00 0.00 0.00 81 1019.0
20260507052549 56 45 1.0 3.0 0.00 0.00 0.00 80 1018.9
20260507051519 56 338 2.0 4.0 0.00 0.00 0.00 80 1019.0
20260507050523 56 23 1.0 2.0 0.00 0.00 0.00 80 1019.1
20260507045626 56 23 2.0 4.0 0.00 0.00 0.00 80 1019.0
20260507044521 56 0 3.0 6.0 0.00 0.00 0.00 80 1018.8
20260507043531 56 0 2.0 5.0 0.00 0.00 0.00 80 1018.8
20260507042519 57 180 1.0 3.0 0.00 0.00 0.00 80 1018.8
20260507041534 57 23 3.0 6.0 0.00 0.00 0.00 79 1018.7
20260507040559 57 45 1.0 3.0 0.00 0.00 0.00 79 1018.7
20260507035540 57 45 2.0 3.0 0.00 0.00 0.00 78 1018.6
20260507034519 58 68 2.0 5.0 0.00 0.00 0.00 77 1018.4
20260507033518 58 338 4.0 9.0 0.00 0.00 0.00 78 1018.4
20260507032518 59 0 2.0 4.0 0.00 0.00 0.00 76 1018.2
20260507031519 59 315 3.0 6.0 0.00 0.00 0.00 75 1018.1
20260507030519 60 45 4.0 7.0 0.00 0.00 0.00 74 1018.1
20260507025518 60 180 3.0 7.0 0.00 0.00 0.00 73 1018.1
20260507024518 61 180 5.0 12.0 0.00 0.00 0.00 72 1018.1
20260507023518 61 158 5.0 10.0 0.00 0.00 0.00 74 1018.1
20260507022518 61 180 5.0 9.0 0.00 0.00 0.00 72 1018.1
20260507021519 62 180 6.0 13.0 0.00 0.00 0.00 72 1017.9
20260507020519 62 180 10.0 16.0 0.00 0.00 0.00 70 1017.8
20260507015518 62 180 11.0 17.0 0.00 0.00 0.00 70 1017.8
20260507014518 62 180 9.0 16.0 0.00 0.00 0.00 69 1017.7
20260507013519 62 180 9.0 17.0 0.00 0.00 0.00 70 1017.7
20260507012518 62 180 10.0 18.0 0.00 0.00 0.00 70 1017.7
20260507011538 62 180 12.0 19.0 0.00 0.00 0.00 69 1017.7
20260507010519 63 180 10.0 15.0 0.00 0.00 0.00 69 1017.7
20260507005518 63 180 10.0 15.0 0.00 0.00 0.00 69 1017.7
20260507004519 63 180 12.0 18.0 0.00 0.00 0.00 68 1017.6
20260507003518 64 180 9.0 14.0 0.00 0.00 0.00 67 1017.6
20260507002538 64 180 9.0 14.0 0.00 0.00 0.00 68 1017.7
20260507001518 63 180 13.0 18.0 0.00 0.00 0.00 69 1017.7
20260507000519 63 180 14.0 19.0 0.00 0.00 0.00 69 1017.7
20260506235519 63 180 11.0 18.0 0.00 0.00 0.00 69 1017.7
20260506234519 63 180 11.0 18.0 0.00 0.00 0.00 69 1017.8
20260506233518 63 180 11.0 17.0 0.00 0.00 0.00 69 1017.8
20260506232518 63 180 9.0 15.0 0.00 0.00 0.00 70 1018.0
20260506231518 63 180 9.0 16.0 0.00 0.00 0.00 70 1018.1
20260506230518 63 180 10.0 15.0 0.00 0.00 0.00 70 1018.2
20260506225518 63 180 11.0 18.0 0.00 0.00 0.00 70 1018.1
20260506224520 64 180 8.0 15.0 0.00 0.00 0.00 70 1018.1
20260506223555 64 203 7.0 12.0 0.00 0.00 0.00 70 1018.1
20260506222520 64 180 8.0 13.0 0.00 0.00 0.00 70 1018.3
20260506221520 64 180 9.0 17.0 0.00 0.00 0.00 70 1018.4
20260506220540 64 180 6.0 13.0 0.00 0.00 0.00 68 1018.5
20260506215518 64 225 6.0 10.0 0.00 0.00 0.00 68 1018.3
20260506214520 64 180 5.0 10.0 0.00 0.00 0.00 69 1018.2
20260506213520 64 113 2.0 6.0 0.00 0.00 0.00 69 1018.2
20260506212520 63 68 2.0 6.0 0.00 0.00 0.00 71 1018.4
20260506211519 63 68 1.0 4.0 0.00 0.00 0.00 71 1018.5
20260506210519 63 248 1.0 4.0 0.00 0.00 0.00 71 1018.5
20260506205520 62 203 1.0 3.0 0.00 0.00 0.00 73 1018.6
20260506204520 62 203 3.0 4.0 0.00 0.00 0.00 72 1018.5
20260506203540 62 225 2.0 4.0 0.00 0.00 0.00 74 1018.5
20260506202520 62 225 1.0 3.0 0.00 0.00 0.00 72 1018.6
20260506201520 61 225 2.0 6.0 0.00 0.00 0.00 76 1018.6
20260506200520 60 225 3.0 5.0 0.00 0.00 0.00 76 1018.6
20260506195520 60 0 2.0 5.0 0.00 0.00 0.00 76 1018.6
20260506194520 60 0 2.0 4.0 0.00 0.00 0.00 76 1018.6
20260506193520 60 0 1.0 3.0 0.00 0.00 0.00 75 1018.6
20260506192559 61 315 3.0 6.0 0.00 0.00 0.00 74 1018.7
20260506191519 61 315 2.0 3.0 0.00 0.00 0.00 75 1018.6
20260506190528 60 315 1.0 3.0 0.00 0.00 0.00 76 1018.5
20260506185537 60 180 3.0 5.0 0.00 0.00 0.00 77 1018.4
20260506184551 60 225 3.0 6.0 0.00 0.00 0.00 77 1018.2
20260506183520 59 225 3.0 6.0 0.00 0.00 0.00 77 1018.2
20260506182520 59 338 1.0 2.0 0.00 0.00 0.00 77 1018.2
20260506181520 59 315 2.0 4.0 0.00 0.00 0.00 79 1018.2
20260506180519 59 248 1.0 3.0 0.00 0.00 0.00 79 1018.3
20260506175609 58 248 2.0 4.0 0.00 0.00 0.00 80 1018.2
20260506174519 58 180 4.0 6.0 0.00 0.00 0.00 80 1018.2
20260506173519 58 203 4.0 7.0 0.00 0.00 0.00 79 1018.2
20260506172520 57 180 4.0 8.0 0.00 0.00 0.00 80 1018.1
20260506171520 57 180 4.0 8.0 0.00 0.00 0.00 80 1018.1
20260506170521 57 180 5.0 8.0 0.00 0.00 0.00 81 1018.0
20260506165521 57 180 4.0 7.0 0.00 0.00 0.00 82 1018.0
20260506164519 57 180 4.0 8.0 0.00 0.00 0.00 83 1018.1
20260506163520 57 113 1.0 4.0 0.00 0.00 0.00 83 1018.1
20260506162542 56 180 3.0 6.0 0.00 0.00 0.00 83 1018.1
20260506161519 56 180 4.0 6.0 0.00 0.00 0.00 83 1018.1
20260506160519 56 180 5.0 8.0 0.00 0.00 0.00 84 1018.1
20260506155519 56 180 4.0 8.0 0.00 0.00 0.00 83 1018.0
20260506154520 56 180 4.0 7.0 0.00 0.00 0.00 83 1017.8
20260506153527 56 180 4.0 9.0 0.00 0.00 0.00 84 1017.8
20260506152539 55 180 6.0 9.0 0.00 0.00 0.00 84 1017.6
20260506151519 55 180 5.0 7.0 0.00 0.00 0.00 84 1017.6
20260506150522 55 180 5.0 8.0 0.00 0.00 0.00 84 1017.6
20260506145519 55 180 6.0 8.0 0.00 0.00 0.00 85 1017.5
20260506144520 55 180 6.0 8.0 0.00 0.00 0.00 85 1017.4
20260506143519 55 180 5.0 8.0 0.00 0.00 0.00 85 1017.4
20260506142519 55 180 3.0 5.0 0.00 0.00 0.00 86 1017.3
20260506141524 55 135 4.0 7.0 0.00 0.00 0.00 85 1017.2
20260506140519 55 180 3.0 6.0 0.00 0.00 0.00 86 1017.2
20260506135519 55 180 3.0 5.0 0.00 0.00 0.00 86 1017.2
20260506134518 55 180 4.0 5.0 0.00 0.00 0.00 86 1017.1
20260506133521 55 158 3.0 6.0 0.00 0.00 0.00 86 1017.1
20260506132519 54 180 3.0 4.0 0.00 0.00 0.00 86 1016.9
20260506131625 54 158 3.0 5.0 0.00 0.00 0.00 86 1016.9
20260506130519 54 158 3.0 6.0 0.00 0.00 0.00 86 1016.9
20260506125600 54 180 3.0 6.0 0.00 0.00 0.00 86 1016.9
20260506124518 54 180 4.0 7.0 0.00 0.00 0.00 86 1016.7
20260506123547 54 180 4.0 8.0 0.00 0.00 0.00 86 1016.6
20260506122518 55 180 5.0 8.0 0.00 0.00 0.00 86 1016.7
20260506121519 55 158 6.0 10.0 0.00 0.00 0.00 86 1016.6
20260506120519 55 180 2.0 5.0 0.00 0.00 0.00 86 1016.5
20260506115637 55 180 3.0 6.0 0.00 0.00 0.00 86 1016.6
20260506114518 55 135 5.0 8.0 0.00 0.00 0.00 86 1016.6
20260506113519 55 180 5.0 9.0 0.00 0.00 0.00 86 1016.6
20260506112518 55 180 5.0 8.0 0.00 0.00 0.00 86 1016.6
20260506111519 55 180 4.0 7.0 0.00 0.00 0.00 86 1016.3
20260506110518 55 135 4.0 9.0 0.00 0.00 0.00 86 1016.3
20260506105519 55 135 4.0 7.0 0.00 0.00 0.00 86 1016.6
20260506104519 55 135 5.0 9.0 0.00 0.00 0.00 85 1016.6
20260506103519 55 158 2.0 5.0 0.00 0.00 0.00 86 1016.6
20260506102519 55 135 3.0 6.0 0.00 0.00 0.00 86 1016.5
20260506101518 55 135 7.0 13.0 0.00 0.00 0.00 86 1016.2
20260506100519 55 180 7.0 14.0 0.00 0.00 0.00 86 1016.2
20260506095518 54 180 6.0 10.0 0.00 0.00 0.00 86 1016.1
20260506094519 54 180 4.0 7.0 0.00 0.00 0.00 87 1016.0
20260506093518 54 180 3.0 5.0 0.00 0.00 0.00 88 1016.0
20260506092519 54 135 3.0 5.0 0.00 0.00 0.00 88 1016.1
20260506091538 54 90 2.0 4.0 0.00 0.00 0.00 88 1016.1